Location: Castle
(40.7167°S, 175.9500°E)
Time: 10:53:38
(UTC+00:00)

NANOSAT C BR1 - Visible Passes

Search period start: 07 February 2026 00:00
Search period end: 17 February 2026 00:00
Orbit: 484 x 486 km, 98.1° (Epoch: 7 February)

Date Brightness Start Highest point End Pass type
(mag) Time Alt. Az. Time Alt. Az. Time Alt. Az.
8 Feb ? 08:44:41 10° SW 08:45:55 11° WSW 08:47:09 10° W visible
9 Feb ? 08:19:00 10° SSW 08:21:50 21° WSW 08:24:39 10° WNW visible
10 Feb ? 07:54:10 10° S 07:57:39 42° WSW 08:01:05 10° NW visible
12 Feb ? 08:40:03 10° SW 08:41:51 13° WSW 08:43:39 10° W visible
13 Feb ? 08:14:34 10° SSW 08:17:36 25° WSW 08:20:37 10° NW visible
14 Feb ? 07:49:39 10° S 07:53:13 51° WSW 07:56:44 10° NNW visible
16 Feb ? 08:34:53 10° SSW 08:37:07 16° WSW 08:39:20 10° WNW visible
